Home   Weather   Columbus   Past weeks
Flag for USA

Past Weather in Columbus, Ohio, USA — Yesterday and Last 2 Weeks

Now
62 °F

Scattered clouds.


Feels Like: 62 °F
Forecast: 63 / 50 °F
Wind: 22 mph from Southwest

Location: John Glenn Columbus International Airport

Current Time: Oct 22, 2019 at 3:18:07 pm

Latest Report: Oct 22, 2019 at 1:51 pm


Visibility: 10 mi

Pressure: 29.74 "Hg

Humidity: 43%

Dew Point: 39 °F

Location of ColumbusLocation

Past Weather in Columbus — Graph

°F

Columbus Temperature Yesterday

Maximum temperature yesterday: 73 °F (at 3:51 pm)
Minimum temperature yesterday: 54 °F (at 3:51 am)
Average temperature yesterday: 61 °F

High & Low Weather Summary for the Past Weeks

 TemperatureHumidityPressure
High79 °F (Oct 10, 4:51 pm)97% (Oct 8, 12:51 am)30.27 "Hg (Oct 8, 12:51 am)
Low37 °F (Oct 18, 6:51 am)20% (Oct 13, 4:51 pm)29.64 "Hg (Oct 16, 4:51 am)
Average56 °F65%30.00 "Hg
* Reported Oct 7 1:51 pm — Oct 22 1:51 pm, Columbus. Weather by CustomWeather, © 2019

Note: Actual official high and low records may vary slightly from our data, if they occured in-between our weather recording intervals... More about our weather records

Advertising

Columbus Weather History for the Previous 24 Hours

Scroll right to see more
 ConditionsComfort  
Time TempWeatherWind HumidityBarometerVisibility
1:51 pm
Tue, Oct 22
62 °FScattered clouds.22 mph43%29.74 "Hg10 mi
12:51 pm62 °FScattered clouds.18 mph50%29.75 "Hg10 mi
11:51 am62 °FScattered clouds.18 mph52%29.75 "Hg9 mi
10:51 am62 °FPassing clouds.16 mph48%29.75 "Hg10 mi
9:51 am60 °FScattered clouds.13 mph69%29.75 "Hg10 mi
8:51 am58 °FScattered clouds.7 mph87%29.75 "Hg10 mi
8:10 am59 °FBroken clouds.9 mph84%29.77 "Hg10 mi
7:51 am59 °FMostly cloudy.8 mph87%29.75 "Hg10 mi
7:35 am59 °FPassing clouds.9 mph87%29.78 "Hg10 mi
6:51 am59 °FMostly cloudy.7 mph87%29.73 "Hg10 mi
5:51 am60 °FMostly cloudy.9 mph86%29.76 "Hg10 mi
4:51 am60 °FOvercast.6 mph86%29.71 "Hg10 mi
4:11 am60 °FMostly cloudy.5 mph90%29.75 "Hg10 mi
3:51 am60 °FLight rain. Mostly cloudy.6 mph90%29.74 "Hg10 mi
2:51 am61 °FOvercast.9 mph90%29.76 "Hg10 mi
1:51 am61 °FLight rain. Mostly cloudy.12 mph90%29.77 "Hg10 mi
1:38 am61 °FMostly cloudy.10 mph90%29.78 "Hg10 mi
12:51 am61 °FOvercast.10 mph90%29.76 "Hg10 mi
11:51 pm
Mon, Oct 21
61 °FLight rain. Overcast.8 mph90%29.78 "Hg10 mi
10:51 pm62 °FLight rain. Mostly cloudy.12 mph90%29.79 "Hg10 mi
9:51 pm63 °FLight rain. Mostly cloudy.10 mph90%29.78 "Hg8 mi
8:51 pm63 °FLight rain. Mostly cloudy.10 mph87%29.78 "Hg7 mi
7:51 pm66 °FLight rain. Mostly cloudy.21 mph81%29.77 "Hg6 mi
6:51 pm72 °FMostly cloudy.10 mph57%29.73 "Hg10 mi
5:51 pm73 °FCloudy.14 mph55%29.74 "Hg10 mi
4:51 pm73 °FBroken clouds.15 mph53%29.76 "Hg10 mi
3:51 pm73 °FScattered clouds.17 mph50%29.77 "Hg10 mi
Weather by CustomWeather, © 2019

See weather overview